Temperature
14 14 14 15 15 15 16 15 15 14 14 14 14 13 13 13 12 12 12 12 12 12 12 12 12 11 11 11 11 11 11 11 11 11 11 11 11 11 11 11 11 10 10
15 14 14 14 14 14 14 14 14 14 13 13 13 13 13 12 12 12 12 12 12 12 12 11 11 11 11 11 11 11 11 11 11 11 11 11 11 11 10 10 10 10 10
15 14 14 14 14 14 13 13 13 13 13 13 13 13 13 12 12 11 12 12 12 12 12 11 11 11 11 11 11 11 11 11 11 11 11 11 11 10 10 10 10 9 9
15 14 14 14 14 13 13 13 13 13 13 13 13 13 13 12 12 11 11 12 12 12 12 11 11 11 11 10 10 11 11 10 10 10 10 10 10 10 10 9 9 9 8
15 14 14 14 14 13 13 13 13 13 13 13 13 13 12 12 12 11 11 11 11 12 12 11 11 11 10 10 10 10 10 10 10 10 10 10 10 10 9 9 8 8 7
15 14 14 14 14 13 13 13 13 13 13 13 12 12 12 12 12 12 11 11 11 11 12 11 11 11 10 10 10 10 10 10 10 10 10 9 9 9 9 8 7 7 7
15 15 14 14 14 13 13 13 13 12 12 12 11 11 11 11 11 11 11 11 11 11 11 11 11 11 10 10 10 9 9 9 9 9 9 9 9 8 8 7 7 6 6
16 15 14 14 14 13 13 13 12 12 12 12 11 11 10 10 11 11 11 11 11 11 11 11 11 11 10 10 10 9 9 8 8 8 8 8 8 8 7 6 6 5 5
15 15 14 13 13 13 13 13 12 12 12 12 11 11 11 12 11 11 11 11 11 11 11 10 10 10 10 10 10 9 9 8 8 8 7 7 7 7 6 6 5 5 5
14 14 13 13 13 12 12 12 12 12 11 11 11 11 11 12 11 11 11 10 10 10 10 10 9 9 9 9 9 9 9 8 7 7 7 7 6 6 5 5 4 4 4
14 13 13 13 12 12 12 12 12 12 11 11 11 11 10 10 11 11 11 11 10 10 9 9 8 8 8 8 8 8 8 7 7 7 6 6 6 5 5 4 4 4 3
13 13 13 13 12 12 12 11 11 11 11 11 11 10 10 10 10 10 10 10 10 10 9 8 7 7 7 7 7 7 7 6 6 6 6 5 5 4 4 4 4 3 3
12 12 12 12 12 12 12 11 11 11 11 11 11 10 10 10 9 9 9 9 9 8 7 6 6 6 5 5 5 5 5 5 5 5 5 5 4 4 4 4 4 3 3
11 12 12 12 12 11 11 11 11 11 11 10 10 10 10 9 9 9 8 8 7 7 6 6 5 5 5 5 4 4 4 4 4 4 4 4 4 4 4 3 3 3 3
10 10 11 11 11 11 11 11 10 10 10 10 10 10 9 9 9 8 8 7 7 6 5 5 5 4 4 4 4 3 3 3 3 4 4 3 3 3 3 3 2 2 2
9 10 10 10 10 10 10 10 10 10 9 9 9 9 9 8 8 8 7 7 6 5 5 4 4 4 3 3 3 3 2 2 3 3 3 2 2 2 2 1 1 1 1
8 9 9 9 9 9 9 9 9 8 8 8 8 8 8 8 8 7 7 6 5 4 4 3 3 3 2 2 2 2 1 2 2 2 1 1 1 1 0 0 0 -0 -0
8 8 8 8 8 8 8 8 8 8 7 7 7 7 7 7 7 6 6 5 4 3 3 2 2 2 2 1 1 1 1 1 1 1 0 0 -0 -1 -1 -1 -1 -1 -2
7 7 7 7 7 7 7 7 7 7 7 7 7 7 6 6 5 5 4 3 2 2 2 2 2 1 1 1 0 0 -0 -0 -1 -1 -1 -1 -1 -2 -2 -2 -2 -3 -3
6 6 6 6 6 6 6 6 6 6 5 5 5 5 5 4 3 2 2 1 1 1 1 1 1 1 1 -0 -0 -1 -1 -1 -2 -2 -2 -2 -2 -3 -3 -3 -3 -3 -3
5 4 4 4 4 5 5 4 4 4 4 4 4 3 2 2 1 1 1 1 0 0 0 0 0 -0 -1 -1 -2 -3 -3 -3 -3 -3 -3 -3 -3 -3 -3 -3 -3 -3 -3
3 3 3 3 3 3 3 3 3 2 2 2 1 1 1 0 -0 -0 -0 -0 -0 -1 -1 -1 -1 -2 -2 -3 -4 -4 -4 -4 -4 -4 -4 -3 -4 -3 -3 -3 -3 -3 -4
2 2 2 1 1 1 1 1 1 1 1 0 -0 -0 -1 -1 -1 -1 -1 -1 -1 -2 -2 -2 -3 -3 -4 -4 -5 -5 -5 -5 -5 -5 -6 -4 -3 -4 -3 -3 -3 -3 -4
1 1 0 0 0 -0 -0 -0 -0 -0 -0 -1 -1 -1 -1 -1 -2 -2 -2 -2 -3 -3 -3 -4 -4 -4 -5 -5 -6 -6 -6 -6 -5 -5 -6 -5 -4 -4 -3 -3 -3 -3 -3
0 -0 -0 -0 -0 -1 -1 -1 -1 -1 -1 -1 -2 -2 -2 -2 -3 -3 -3 -4 -4 -4 -5 -5 -5 -5 -6 -6 -6 -6 -6 -7 -6 -5 -5 -6 -5 -5 -3 -2 -2 -3 -3
-1 -1 -1 -1 -1 -1 -1 -1 -2 -2 -2 -2 -2 -3 -3 -3 -4 -4 -4 -5 -5 -6 -6 -6 -6 -6 -6 -6 -6 -7 -7 -7 -7 -7 -6 -7 -6 -7 -6 -3 -3 -3 -3
Wind_Speed
5 7 9 13 14 14 13 11 11 10 9 9 9 6 7 8 8 15 15 15 14 12 10 9 9 9 9 9 9 9 9 9 10 10 11 11 11 11 12 12 12 13 13
8 6 6 8 11 13 13 12 10 7 6 6 6 6 6 8 9 16 17 16 15 13 12 11 10 9 9 9 8 8 8 8 8 8 9 9 9 9 10 10 11 11 11
11 8 4 4 9 13 13 11 10 8 5 5 5 6 6 6 8 14 18 17 15 14 13 12 11 10 10 9 8 8 7 7 6 6 6 6 7 7 7 8 8 9 9
14 10 5 5 10 11 9 5 5 5 5 6 5 5 4 4 6 10 17 18 18 15 14 14 13 12 11 10 9 8 7 6 5 4 4 4 4 4 5 5 6 7 7
16 11 6 7 11 7 5 6 5 5 5 6 6 5 5 4 5 7 10 16 19 19 17 15 14 14 12 11 9 8 7 5 4 3 2 1 1 2 3 4 5 6 6
15 13 8 9 10 6 7 6 7 6 5 6 5 5 5 5 5 5 7 11 16 19 20 18 16 15 14 12 11 9 7 6 4 3 2 1 1 2 3 4 5 6 7
13 11 6 8 8 9 9 8 7 7 6 5 4 2 2 3 6 6 6 6 10 16 19 20 19 17 16 15 13 11 9 7 5 4 3 2 2 3 5 6 7 8 9
14 10 8 8 9 8 10 11 8 7 6 7 5 4 3 5 6 7 6 7 8 13 14 19 21 20 19 17 15 13 11 8 7 5 3 3 3 4 6 8 9 10 11
14 12 9 8 8 9 9 11 11 11 9 8 6 6 5 7 4 5 8 8 8 8 8 14 18 20 20 19 18 15 13 10 8 6 4 4 4 6 8 10 11 12 13
13 15 12 10 10 8 9 10 11 9 8 7 6 6 4 4 5 4 4 6 8 8 9 9 13 17 19 18 18 17 14 11 9 7 5 5 6 8 10 11 12 13 14
9 12 13 12 12 10 10 10 10 11 10 9 7 5 6 3 2 4 4 5 6 7 7 7 10 13 17 17 18 17 15 12 9 7 5 6 8 10 11 13 14 14 15
6 8 10 11 12 12 12 12 11 11 11 10 9 7 6 5 6 4 3 3 4 4 4 4 6 10 14 16 16 16 14 11 9 7 6 7 9 11 12 13 15 15 16
5 6 7 9 10 12 12 12 12 12 12 11 11 9 9 8 4 5 4 3 3 0 1 1 1 7 10 12 14 15 13 10 8 7 7 9 10 12 13 14 16 17 17
5 6 5 7 8 10 10 10 10 11 9 11 12 10 7 7 6 5 5 5 4 1 1 1 1 4 8 11 13 13 10 10 9 8 9 11 12 13 14 15 17 18 18
5 6 6 5 5 6 8 8 8 8 7 8 9 9 6 4 4 4 4 5 7 6 7 3 2 2 6 9 12 9 7 8 9 10 11 13 14 15 16 17 18 19 19
6 7 6 5 3 2 2 5 5 5 5 5 4 5 4 3 3 3 4 3 4 5 5 4 3 2 5 7 8 6 5 7 11 13 15 15 16 17 17 18 19 20 20
8 7 7 5 4 3 2 0 1 2 3 2 2 3 3 4 4 3 3 3 3 4 4 3 2 2 3 4 5 5 7 10 11 14 16 16 17 18 18 19 20 20 21
9 9 9 8 7 6 5 4 3 3 3 3 4 5 5 5 6 5 4 4 4 3 4 4 3 4 4 4 4 4 8 10 11 14 16 17 18 18 19 20 20 20 20
10 10 10 10 9 8 8 7 6 6 6 5 5 6 7 8 7 5 6 5 4 4 3 4 4 2 2 3 4 5 7 7 11 12 14 16 17 18 19 19 20 20 20
10 10 10 10 9 9 9 8 8 9 8 8 7 7 7 7 7 7 6 6 5 4 4 5 3 2 2 3 3 4 4 4 5 8 12 15 16 17 18 19 20 21 21
10 9 9 9 9 8 8 9 9 9 9 9 9 8 8 8 8 6 5 5 4 3 3 3 2 2 2 2 3 3 3 3 4 4 4 7 9 11 15 19 21 21 22
10 10 10 10 10 9 12 14 11 9 9 9 9 9 8 7 8 8 8 6 4 2 2 2 2 2 2 3 2 1 1 1 3 3 3 6 6 8 12 16 20 22 22
9 10 10 10 10 12 15 15 15 10 9 8 8 7 6 6 7 4 5 4 1 0 1 1 1 2 2 1 1 1 2 4 5 4 5 8 6 9 12 17 21 22 22
9 9 9 9 9 11 15 15 15 10 9 8 7 6 5 5 4 3 3 2 1 2 2 1 2 2 2 2 3 3 4 4 5 5 4 6 6 7 9 14 20 22 22
8 8 7 8 8 9 13 13 11 6 6 6 5 5 4 3 3 3 2 2 3 3 4 4 5 7 9 10 9 3 3 3 5 5 3 4 4 5 6 8 13 15 15
6 6 6 6 6 6 9 10 8 4 4 3 2 2 3 3 3 3 2 2 3 3 3 4 5 7 7 9 11 5 4 4 4 4 3 2 3 4 5 4 4 8 12
Wind_Direction
180 181 183 179 188 191 192 185 205 201 191 191 200 195 179 202 153 138 147 150 150 151 152 149 144 136 127 117 108 101 94 88 83 78 73 68 64 60 58 55 51 47 44
191 191 192 187 190 193 188 187 202 195 183 183 188 197 203 197 164 144 151 155 158 161 164 164 160 152 143 134 124 114 104 95 89 83 77 71 65 59 56 53 49 44 40
202 198 195 194 194 196 191 187 200 194 177 173 182 196 205 200 174 151 156 160 163 169 173 175 171 166 158 149 139 130 119 108 98 90 82 74 66 57 50 46 42 38 33
210 203 195 205 200 197 193 185 192 184 175 170 179 195 193 188 185 167 162 165 169 173 180 182 178 174 169 163 155 147 139 130 117 104 91 79 66 51 38 31 27 22 17
214 207 201 203 202 198 192 192 189 178 178 181 188 189 186 179 196 189 169 169 172 175 179 183 179 178 176 175 170 165 160 155 147 138 123 91 48 23 6 360 357 355 352
219 212 206 205 200 195 200 196 190 188 183 181 187 183 190 187 191 194 188 178 173 173 177 177 174 176 181 183 183 182 180 178 176 178 186 231 310 323 327 328 329 330 329
232 220 211 206 203 203 201 196 186 194 195 163 145 175 243 219 207 202 195 184 178 178 176 176 177 180 186 191 192 192 193 193 192 195 205 236 283 307 312 313 314 314 313
233 234 224 218 210 207 201 199 196 189 190 171 152 139 209 247 247 217 199 197 187 183 184 182 183 184 186 190 193 194 195 196 197 200 213 241 273 294 302 305 305 305 305
222 228 233 230 223 215 213 208 203 196 198 195 180 167 176 208 210 221 214 203 193 187 190 190 189 186 182 183 186 189 189 192 197 203 217 246 275 290 296 299 300 301 301
214 217 223 226 229 226 222 217 211 207 193 199 216 227 214 162 164 199 230 212 200 195 192 195 194 188 182 173 177 181 183 186 195 206 223 252 276 288 294 296 297 298 299
219 215 214 217 223 226 228 226 219 213 207 200 200 211 237 256 198 155 199 211 212 210 196 189 187 184 179 170 167 173 179 186 195 207 232 262 281 290 294 297 297 298 297
244 225 216 217 219 221 224 226 225 220 215 210 204 198 194 205 213 197 178 181 205 214 192 178 178 176 174 169 169 173 178 188 199 217 245 270 286 295 297 298 297 296 294
273 248 226 222 222 222 222 222 223 224 219 215 214 211 208 210 192 201 196 159 151 102 114 119 131 154 159 156 160 167 177 191 209 232 260 280 292 297 297 295 294 293 291
288 289 264 239 230 223 221 221 224 227 224 222 222 217 212 210 198 189 184 161 151 153 195 188 68 126 140 146 160 169 183 202 222 247 270 283 291 292 291 291 290 289 288
310 314 306 282 254 231 222 216 222 223 221 224 223 218 214 202 190 180 165 170 173 186 207 191 178 154 141 146 163 170 188 214 240 260 271 279 284 285 286 287 287 287 286
341 341 338 335 323 289 240 219 220 217 212 218 211 206 201 172 159 156 164 161 170 176 182 172 178 152 152 164 173 182 212 245 259 267 274 277 279 281 283 284 285 285 284
2 360 357 2 9 10 17 39 203 174 190 181 151 160 150 129 130 125 130 142 145 147 154 144 135 137 160 171 184 212 241 252 258 266 272 276 279 282 284 284 284 284 283
15 17 19 25 28 30 37 51 64 81 111 125 119 118 118 116 112 112 117 119 121 121 141 154 158 165 181 186 195 223 243 250 252 264 272 277 280 283 284 284 284 283 281
26 28 32 33 34 37 44 53 65 70 74 84 100 113 118 119 115 112 111 112 108 98 104 137 144 147 165 186 203 229 240 248 257 266 276 282 286 288 286 286 285 284 282
37 38 41 42 42 45 51 60 71 76 78 78 84 95 103 113 120 119 114 111 107 100 103 117 126 143 171 188 198 224 245 242 256 271 279 283 287 290 290 290 289 288 285
45 44 47 48 47 51 58 68 73 81 83 82 78 79 86 102 116 114 117 116 115 115 120 129 143 157 182 193 212 214 234 262 276 269 271 280 288 288 287 287 287 286 284
49 51 52 53 53 60 72 77 80 77 80 82 81 75 78 81 94 98 109 113 116 127 143 150 163 185 208 218 209 198 217 295 292 291 309 289 284 280 278 276 281 284 284
53 55 55 58 62 67 74 78 79 78 75 73 73 72 72 67 63 61 81 88 79 37 198 169 201 233 244 227 196 246 249 247 253 265 295 289 275 276 277 281 287 289 290
59 59 59 60 64 67 73 77 79 74 74 70 69 71 76 73 65 53 46 48 323 278 256 236 215 251 263 246 218 229 243 266 271 270 264 276 280 276 282 281 287 289 291
65 63 62 62 63 63 70 75 77 72 75 71 67 64 64 64 54 32 21 328 307 301 292 279 272 276 279 279 274 265 273 287 291 284 247 253 281 293 284 279 283 291 295
76 76 71 68 68 63 67 67 71 72 74 74 71 69 60 39 7 357 3 340 322 324 348 337 314 301 292 285 282 253 211 228 257 285 273 278 294 329 309 281 273 289 293
Height
1552 1553 1553 1554 1555 1556 1557 1559 1560 1561 1562 1563 1563 1564 1564 1565 1565 1563 1563 1564 1564 1563 1563 1563 1563 1562 1562 1562 1562 1562 1562 1562 1562 1562 1562 1561 1561 1561 1561 1561 1561 1561 1561
1550 1551 1552 1552 1553 1554 1555 1556 1558 1559 1559 1560 1561 1561 1562 1562 1562 1561 1561 1561 1561 1561 1561 1561 1561 1561 1561 1561 1561 1561 1561 1561 1561 1561 1561 1561 1561 1560 1560 1560 1560 1559 1559
1547 1548 1549 1550 1550 1552 1553 1553 1554 1556 1556 1556 1557 1558 1559 1559 1559 1558 1557 1558 1558 1558 1559 1559 1559 1559 1559 1559 1559 1560 1560 1560 1560 1560 1560 1559 1559 1559 1559 1559 1558 1558 1558
1544 1545 1545 1546 1548 1548 1549 1550 1551 1552 1552 1552 1553 1554 1555 1556 1556 1556 1554 1553 1554 1555 1555 1556 1556 1556 1557 1557 1557 1558 1558 1558 1558 1558 1558 1558 1558 1558 1557 1557 1557 1557 1556
1540 1540 1541 1542 1543 1544 1545 1546 1546 1547 1548 1548 1549 1550 1550 1551 1552 1552 1551 1550 1550 1550 1551 1552 1553 1553 1554 1554 1555 1555 1555 1556 1556 1556 1556 1556 1556 1556 1555 1555 1555 1555 1554
1535 1536 1536 1537 1538 1539 1540 1540 1541 1542 1543 1544 1545 1545 1546 1546 1547 1547 1547 1547 1546 1546 1547 1548 1549 1549 1550 1551 1551 1552 1552 1553 1553 1553 1553 1553 1553 1553 1553 1553 1552 1552 1552
1530 1530 1530 1531 1532 1533 1533 1534 1536 1536 1537 1539 1540 1540 1540 1541 1541 1541 1542 1542 1541 1542 1542 1542 1544 1545 1546 1547 1547 1548 1549 1549 1549 1550 1550 1550 1550 1550 1550 1550 1549 1549 1549
1523 1524 1525 1525 1526 1527 1527 1528 1529 1529 1530 1532 1532 1533 1534 1535 1533 1533 1534 1535 1535 1536 1537 1537 1538 1539 1540 1542 1543 1544 1545 1545 1546 1546 1546 1546 1546 1546 1546 1546 1546 1546 1545
1516 1517 1518 1519 1520 1521 1521 1521 1522 1523 1523 1524 1524 1526 1526 1524 1525 1526 1526 1527 1528 1529 1530 1531 1532 1533 1534 1535 1537 1538 1540 1541 1541 1541 1541 1542 1542 1542 1542 1541 1541 1541 1541
1510 1510 1511 1512 1513 1514 1515 1515 1516 1516 1517 1516 1517 1517 1519 1519 1519 1518 1519 1520 1521 1521 1523 1524 1526 1527 1528 1528 1531 1533 1534 1535 1536 1536 1536 1536 1537 1537 1536 1536 1536 1536 1535
1504 1504 1504 1505 1505 1507 1508 1509 1509 1510 1509 1509 1509 1510 1512 1514 1513 1513 1512 1513 1514 1515 1516 1518 1519 1521 1522 1522 1524 1526 1528 1529 1530 1530 1531 1531 1531 1531 1531 1530 1530 1529 1528
1498 1498 1498 1498 1498 1499 1500 1501 1502 1502 1502 1502 1503 1503 1504 1506 1507 1507 1507 1506 1507 1509 1510 1512 1513 1514 1516 1516 1518 1520 1522 1523 1524 1525 1525 1525 1524 1524 1524 1524 1523 1522 1521
1492 1492 1492 1492 1491 1491 1492 1493 1494 1494 1495 1495 1495 1495 1496 1498 1500 1502 1502 1501 1502 1502 1504 1505 1505 1506 1508 1509 1510 1513 1515 1517 1518 1518 1519 1518 1518 1517 1517 1516 1515 1514 1513
1485 1485 1485 1485 1484 1484 1485 1485 1486 1486 1487 1487 1488 1489 1489 1489 1491 1493 1494 1496 1495 1495 1496 1496 1497 1498 1500 1502 1504 1506 1508 1510 1511 1512 1512 1512 1511 1510 1509 1508 1507 1506 1505
1478 1478 1478 1478 1478 1478 1478 1478 1478 1479 1480 1480 1481 1482 1482 1483 1483 1484 1486 1487 1489 1488 1488 1489 1490 1491 1494 1496 1497 1499 1501 1503 1504 1505 1505 1504 1503 1502 1501 1500 1499 1498 1496
1472 1472 1471 1471 1471 1471 1472 1472 1472 1473 1473 1474 1475 1475 1476 1476 1477 1477 1478 1479 1480 1481 1482 1482 1484 1486 1488 1490 1492 1494 1495 1497 1497 1497 1497 1496 1495 1494 1492 1491 1490 1489 1488
1467 1467 1466 1466 1466 1466 1466 1466 1466 1467 1467 1467 1468 1469 1469 1470 1470 1470 1471 1472 1473 1475 1476 1476 1479 1481 1483 1485 1486 1488 1490 1490 1490 1490 1489 1488 1487 1485 1484 1483 1482 1481 1480
1463 1463 1462 1462 1461 1461 1461 1461 1461 1461 1462 1462 1462 1463 1463 1463 1463 1464 1465 1466 1467 1469 1471 1473 1474 1476 1478 1480 1481 1482 1483 1483 1483 1482 1481 1480 1479 1477 1476 1475 1474 1473 1472
1460 1460 1459 1458 1457 1457 1456 1456 1456 1456 1456 1457 1456 1457 1457 1458 1458 1459 1460 1462 1464 1465 1467 1469 1470 1472 1474 1475 1476 1476 1476 1476 1476 1475 1474 1473 1472 1470 1469 1468 1467 1466 1465
1458 1457 1456 1455 1454 1453 1453 1452 1452 1452 1452 1452 1452 1452 1453 1454 1455 1456 1458 1459 1461 1463 1464 1465 1467 1468 1469 1469 1470 1470 1470 1470 1470 1469 1467 1466 1465 1464 1463 1462 1460 1459 1458
1456 1455 1454 1453 1452 1452 1451 1450 1449 1449 1449 1448 1449 1449 1450 1452 1453 1455 1457 1458 1460 1461 1462 1462 1463 1463 1464 1464 1464 1464 1464 1464 1463 1463 1461 1460 1459 1457 1457 1455 1454 1452 1451
1456 1455 1454 1453 1452 1451 1450 1449 1448 1448 1447 1448 1448 1449 1451 1452 1454 1455 1456 1457 1459 1459 1459 1459 1459 1459 1460 1460 1460 1460 1459 1459 1457 1458 1455 1454 1453 1451 1450 1449 1447 1446 1444
1457 1456 1455 1454 1453 1452 1451 1450 1449 1449 1449 1449 1450 1451 1452 1453 1454 1455 1455 1456 1456 1457 1457 1457 1456 1456 1456 1456 1456 1455 1455 1454 1452 1452 1450 1446 1447 1445 1444 1443 1441 1440 1438
1458 1458 1457 1457 1456 1455 1454 1453 1452 1452 1451 1452 1452 1453 1453 1453 1454 1454 1454 1454 1454 1454 1453 1453 1453 1452 1452 1452 1452 1451 1450 1448 1447 1447 1446 1441 1440 1439 1437 1436 1435 1433 1432
1461 1460 1460 1459 1458 1457 1456 1455 1455 1454 1453 1453 1453 1453 1453 1453 1453 1452 1452 1452 1451 1451 1450 1450 1449 1449 1448 1448 1447 1447 1445 1444 1442 1441 1441 1438 1435 1432 1429 1429 1428 1427 1425
1463 1462 1462 1461 1460 1459 1458 1457 1456 1455 1455 1454 1454 1453 1452 1452 1451 1451 1450 1449 1448 1447 1447 1446 1446 1445 1445 1444 1443 1443 1442 1441 1439 1437 1435 1434 1431 1428 1422 1419 1420 1419 1417